"Pseudo-MPEC" for P21DpPp

Created 2023 Mar 26 6:22:14 UT using Find_Orb

Click here for an explanation of pseudo-MPECs

 
 Astrometry: 
     P21DpPp* C2023 03 16$vC5HnXuwFAstrometry^9eredacted;)7Wi1@G6;7%eZHw)LtL;F52
     P21DpPp  C2023 03 16vtsqK?/d*8U;[gAb-iRIZ1h:YeC+9IF5ws`I8ogBaC7C0Xclick_F52
     P21DpPp  C2023 03 16qGkt[bu[(rhere@uAfor@e?9KBexplanation+u/'6R3vr4x=.Y?F52

Station data:
(F52) Pan-STARRS 2, Haleakala  (N20.707382 W156.255910)  US/Hawaii.
   Observers J. Bulger, T. Dukes, T. Lowe, A. Schultz, M. Willman. Measurers
   K. Chambers, S. Chastel, T. de Boer, L. Denneau, J. Fairlamb, H.
   Flewelling, M. Huber, C.-C. Lin, E. Magnier, Y. Ramanjooloo, R. Wainscoat,
   R. Weryk. 1.8-m Ritchey-Chrétien + CCD.

Orbital elements:  P21DpPp
   Perihelion 2023 Aug 11.90662 +/- 131 TT = 21:45:32 (JD 2460168.40662)
Epoch 2023 Mar 16.0 TT = JDT 2460019.5   Earth MOID: 0.7157   Ma: 0.0968
M 301.78072792 +/- 53               (J2000 ecliptic)             AutoNEOCP
n   0.39097839 +/- 0.326            Peri.   82.29855 +/- 110
a   1.85225542 +/- 1.03             Node   151.20267 +/- 15
e   0.1294082 +/- 0.288             Incl.   18.96667 +/- 20
P   2.52/920.75d           H 20.17  G  0.15   U 12.0  SR
q 1.61255821 +/- 0.883    Q 2.09195262 +/- 33.8
From 3 observations 2023 Mar. 16 (49.2 min); mean residual 0".23
Residuals in arcseconds: 
230316 F52  .30-  .03+    230316 F52  .45+  .05-    230316 F52  .15-  .02+    

Ephemerides (geocentric):
Date (UTC) HH   RA             Dec           delta  r     elong  mag " sig PA
---- --------  ------------   ------------  ------ ------ -----  --- --------
2023 03 26 06  09 52 15.515   +23 07 43.74  .87002 1.7349 136.5 22.2 3503  51
2023 03 26 07  09 52 15.017   +23 08 20.04  .87025 1.7348 136.4 22.2 3522  51
2023 03 26 08  09 52 14.524   +23 08 56.29  .87047 1.7347 136.4 22.2 3540  51
2023 03 26 09  09 52 14.035   +23 09 32.49  .87070 1.7347 136.3 22.2 3558  51
2023 03 26 10  09 52 13.551   +23 10 08.63  .87093 1.7346 136.3 22.2 3577  52
2023 03 26 11  09 52 13.071   +23 10 44.72  .87115 1.7346 136.2 22.2 3596  52
2023 03 26 12  09 52 12.596   +23 11 20.75  .87138 1.7345 136.2 22.2 3614  52
2023 03 26 13  09 52 12.126   +23 11 56.73  .87161 1.7344 136.1 22.2 3633  52
2023 03 26 14  09 52 11.660   +23 12 32.66  .87183 1.7344 136.1 22.2 3652  52
2023 03 26 15  09 52 11.198   +23 13 08.53  .87206 1.7343 136.0 22.2 3671  53
2023 03 26 16  09 52 10.741   +23 13 44.35  .87229 1.7342 136.0 22.2 3690  53
2023 03 26 17  09 52 10.288   +23 14 20.12  .87252 1.7342 135.9 22.2 3710  53
2023 03 26 18  09 52 09.840   +23 14 55.83  .87275 1.7341 135.9 22.2 3729  53
2023 03 26 19  09 52 09.397   +23 15 31.49  .87297 1.7340 135.9 22.2 3748  54
2023 03 26 20  09 52 08.958   +23 16 07.10  .87320 1.7340 135.8 22.2 3768  54
2023 03 26 21  09 52 08.523   +23 16 42.65  .87343 1.7339 135.8 22.2 3788  54
2023 03 26 22  09 52 08.093   +23 17 18.15  .87366 1.7339 135.7 22.2 3808  54
2023 03 26 23  09 52 07.668   +23 17 53.60  .87389 1.7338 135.7 22.2 3828  55
2023 03 27 00  09 52 07.247   +23 18 28.99  .87412 1.7337 135.6 22.2 3848  55
2023 03 27 01  09 52 06.831   +23 19 04.33  .87435 1.7337 135.6 22.2 3869  55
2023 03 27 02  09 52 06.419   +23 19 39.61  .87458 1.7336 135.5 22.2 3889  55
2023 03 27 03  09 52 06.012   +23 20 14.84  .87481 1.7335 135.5 22.2 3910  56
2023 03 27 04  09 52 05.609   +23 20 50.02  .87504 1.7335 135.4 22.2 3931  56
2023 03 27 05  09 52 05.211   +23 21 25.14  .87527 1.7334 135.4 22.2 3952  56
2023 03 27 06  09 52 04.817   +23 22 00.21  .87550 1.7334 135.3 22.2 3973  56
2023 03 27 07  09 52 04.428   +23 22 35.23  .87574 1.7333 135.3 22.2 3995  57
2023 03 27 08  09 52 04.043   +23 23 10.20  .87597 1.7332 135.3 22.2 4016  57
2023 03 27 09  09 52 03.663   +23 23 45.11  .87620 1.7332 135.2 22.3 4038  57
2023 03 27 10  09 52 03.288   +23 24 19.96  .87643 1.7331 135.2 22.3 4060  58
2023 03 27 11  09 52 02.917   +23 24 54.77  .87666 1.7330 135.1 22.3 4083  58
2023 03 27 12  09 52 02.550   +23 25 29.52  .87690 1.7330 135.1 22.3 4106  59
2023 03 27 13  09 52 02.188   +23 26 04.21  .87713 1.7329 135.0 22.3 4128  59
2023 03 27 14  09 52 01.831   +23 26 38.86  .87736 1.7328 135.0 22.3 4152  59
2023 03 27 15  09 52 01.478   +23 27 13.45  .87760 1.7328 134.9 22.3 4175  60
2023 03 27 16  09 52 01.130   +23 27 47.98  .87783 1.7327 134.9 22.3 4199  60
2023 03 27 17  09 52 00.786   +23 28 22.47  .87806 1.7327 134.8 22.3 4223  61
2023 03 27 18  09 52 00.447   +23 28 56.90  .87830 1.7326 134.8 22.3 4248  61
2023 03 27 19  09 52 00.112   +23 29 31.27  .87853 1.7325 134.7 22.3 4273  61
2023 03 27 20  09 51 59.782   +23 30 05.60  .87877 1.7325 134.7 22.3 4298  62
2023 03 27 21  09 51 59.456   +23 30 39.87  .87900 1.7324 134.7 22.3 4323  62
2023 03 27 22  09 51 59.135   +23 31 14.08  .87924 1.7323 134.6 22.3 4349  63
2023 03 27 23  09 51 58.819   +23 31 48.24  .87947 1.7323 134.6 22.3 4376  63
2023 03 28 00  09 51 58.507   +23 32 22.35  .87971 1.7322 134.5 22.3 4403  64
2023 03 28 01  09 51 58.200   +23 32 56.41  .87994 1.7322 134.5 22.3 4430  64
2023 03 28 02  09 51 57.897   +23 33 30.41  .88018 1.7321 134.4 22.3 4458  65
2023 03 28 03  09 51 57.599   +23 34 04.36  .88041 1.7320 134.4 22.3 4487  65
2023 03 28 04  09 51 57.305   +23 34 38.26  .88065 1.7320 134.3 22.3 4516  66
2023 03 28 05  09 51 57.016   +23 35 12.10  .88089 1.7319 134.3 22.3 4545  67